Location: Unspecified
(0.0000°N, 0.0000°E)
Time: 12:28:14
(UTC+00:00)

SEEDS - Pass Details

Date: 30 September 2021
Orbit: 585 x 601 km, 97.6° (Epoch: 15 October)

Event Time Altitude Azimuth Distance (km) Brightness Sun altitude
Rises 04:26:18 0° 3° (N) 2,833 ? -20.9°
Reaches altitude 10° 04:28:29 10° 359° (N) 1,933 ? -20.4°
Maximum altitude 04:32:36 55° 281° (WNW) 725 ? -19.3°
Drops below altitude 10° 04:36:43 10° 204° (SSW) 1,939 ? -18.3°
Sets 04:38:55 0° 199° (SSW) 2,842 ? -17.8°
